Flag for Guinea Weather past 2 weeks in Conakry, Guinea

Now
77 °F

Passing clouds.


Feels Like: 78 °F
Forecast: 77 / 80 °F
Wind: 3 mph from West

Location: Bissau Aeroport

Current Time: Aug 3, 2015 at 3:40:18 AM

Latest Report: Aug 3, 2015 at 2:00 AM


Visibility: N/A

Pressure: 29.92 "Hg

Humidity: 100%

Dew point: 77 °F

Location of ConakryLocation

Historic Weather in Conakry — Graph

°F

Conakry temperature yesterday

Maximum temperature yesterday: 88 °F (at 2:00 PM)
Minimum temperature yesterday: 75 °F (at 4:00 AM)
Average temperature yesterday: 80 °F

Past Weeks' High & Low Weather Summary

 TemperatureHumidityPressure
High90 °F (Jul 20, 4:00 PM)100% (Jul 25, 2:00 AM)29.98 "Hg (Jul 25, 2:00 AM)
Low75 °F (Jul 19, 7:00 AM)62% (Jul 19, 4:00 PM)29.83 "Hg (Jul 23, 5:00 PM)
Average80 °F86%29.91 "Hg
* Reported Jul 19 2:00 AM — Aug 3 2:00 AM, Conakry, Weather by CustomWeather, © 2015

Note: Actual official high and low records may vary slightly from our data, if they occured in-between our weather recording intervals... More about our weather records

Advertising

Conakry weather history for previous 24 hours

 ConditionsComfort  
Time TempWeatherWind HumidityBarometerVisibility
2:00 AM
Mon, Aug 3
77 °FPassing clouds.3 mph100%29.92 "HgN/A
1:00 AM77 °FPassing clouds.3 mph100%29.92 "HgN/A
6:00 PM
Sun, Aug 2
82 °FThunderstorms. Partly sunny.9 mph84%29.86 "HgN/A
4:00 PM84 °FPartly sunny.6 mph79%29.86 "HgN/A
3:00 PM84 °FPartly sunny.10 mph74%29.89 "HgN/A
2:00 PM88 °FPartly sunny.13 mph66%29.89 "HgN/A
1:00 PM82 °FPartly sunny.9 mph79%29.92 "HgN/A
12:00 PM84 °FScattered clouds.8 mph79%29.92 "HgN/A
11:00 AM81 °FScattered clouds.5 mph89%29.92 "HgN/A
10:00 AM77 °FScattered clouds.3 mph100%29.92 "HgN/A
9:00 AM77 °FThunderstorms. Scattered clouds.2 mph94%29.89 "HgN/A
8:00 AM77 °FHeavy rain. Partly sunny.6 mph94%29.89 "Hg1 mi
7:00 AM77 °FBroken clouds.5 mph94%29.86 "HgN/A
6:00 AM75 °FPartly cloudy.2 mph100%29.89 "HgN/A
5:00 AM75 °FPartly cloudy.No wind100%29.89 "HgN/A
4:00 AM75 °FPartly cloudy.6 mph100%29.86 "HgN/A
3:00 AM77 °FPartly cloudy.2 mph94%29.86 "HgN/A
Weather by CustomWeather, © 2015

See weather overviewHow to use our weather pages